BTK7536 WAHI-WIHH

Flight info

Callsign BTK7536
Flight time 0h 56m
Altitude 32000
Route CA W17S IMU
Aircraft A320/M-SDE3FGHIRWY/LB1

Departure

Time 2026-04-30 13:19
Airport Yogyakarta International Airport (WAHI)

Arrival

Time 2026-04-30 14:15
Airport Halim Perdanakusuma International Airport (WIHH)
Time Latitude Longitude Altitude Speed Heading
2026-04-30 13:05 -7.90139 110.05945 38 ft 0 kts 20°
2026-04-30 13:08 -7.90149 110.05942 38 ft 3 kts 19°
2026-04-30 13:09 -7.90170 110.05935 36 ft 3 kts 16°
2026-04-30 13:09 -7.90192 110.05929 37 ft 3 kts 11°
2026-04-30 13:09 -7.90215 110.05926 34 ft 3 kts 359°
2026-04-30 13:09 -7.90235 110.05929 37 ft 3 kts 325°
2026-04-30 13:10 -7.90244 110.05939 35 ft 1 kts 290°
2026-04-30 13:10 -7.90245 110.05941 35 ft 0 kts 290°
2026-04-30 13:14 -7.90235 110.05915 37 ft 9 kts 291°
2026-04-30 13:14 -7.90271 110.05766 39 ft 16 kts 197°
2026-04-30 13:15 -7.90338 110.05697 45 ft 16 kts 281°
2026-04-30 13:15 -7.90239 110.05425 39 ft 25 kts 290°
2026-04-30 13:15 -7.90191 110.05295 39 ft 20 kts 290°
2026-04-30 13:16 -7.90126 110.05111 35 ft 24 kts 289°
2026-04-30 13:16 -7.90068 110.04951 37 ft 24 kts 290°
2026-04-30 13:16 -7.90009 110.04790 36 ft 25 kts 290°
2026-04-30 13:17 -7.89893 110.04470 40 ft 24 kts 289°
2026-04-30 13:17 -7.89854 110.04354 40 ft 15 kts 276°
2026-04-30 13:17 -7.89999 110.04351 42 ft 10 kts 157°
2026-04-30 13:18 -7.90048 110.04398 43 ft 7 kts 111°
2026-04-30 13:18 -7.90372 110.05281 38 ft 133 kts 110°
2026-04-30 13:18 -7.90737 110.06302 54 ft 180 kts 109°
2026-04-30 13:19 -7.91206 110.07530 667 ft 185 kts 112°
2026-04-30 13:19 -7.91888 110.08617 1405 ft 184 kts 143°
2026-04-30 13:19 -7.93124 110.08996 2040 ft 197 kts 174°
2026-04-30 13:19 -7.94583 110.08981 2427 ft 221 kts 180°
2026-04-30 13:20 -7.96192 110.08915 2984 ft 239 kts 181°
2026-04-30 13:20 -7.97872 110.08846 3805 ft 243 kts 181°
2026-04-30 13:20 -7.99584 110.08779 4657 ft 248 kts 180°
2026-04-30 13:20 -8.01309 110.08868 5491 ft 250 kts 173°
2026-04-30 13:21 -8.03050 110.09095 6340 ft 253 kts 171°
2026-04-30 13:21 -8.04838 110.09250 6884 ft 271 kts 186°
2026-04-30 13:21 -8.06642 110.08593 7466 ft 284 kts 214°
2026-04-30 13:22 -8.08336 110.05813 8691 ft 297 kts 264°
2026-04-30 13:22 -8.08036 110.03730 9474 ft 302 kts 295°
2026-04-30 13:22 -8.04764 110.01236 10733 ft 317 kts 344°
2026-04-30 13:23 -8.02566 110.00588 10986 ft 340 kts 346°
2026-04-30 13:23 -7.97796 109.99336 12035 ft 362 kts 347°
2026-04-30 13:24 -7.92869 109.98039 13413 ft 371 kts 346°
2026-04-30 13:24 -7.87885 109.96498 14582 ft 380 kts 340°
2026-04-30 13:25 -7.82924 109.94539 15770 ft 385 kts 340°
2026-04-30 13:25 -7.77895 109.92572 16968 ft 390 kts 340°
2026-04-30 13:26 -7.70231 109.89594 18636 ft 398 kts 340°
2026-04-30 13:26 -7.65044 109.87531 19553 ft 404 kts 336°
2026-04-30 13:27 -7.60114 109.84781 20440 ft 411 kts 332°
2026-04-30 13:28 -7.52536 109.80491 21772 ft 419 kts 332°
2026-04-30 13:28 -7.47461 109.77512 22613 ft 426 kts 326°
2026-04-30 13:28 -7.45199 109.75551 23027 ft 431 kts 315°
2026-04-30 13:29 -7.41685 109.70597 23769 ft 439 kts 303°
2026-04-30 13:29 -7.38424 109.65357 24442 ft 444 kts 303°
2026-04-30 13:30 -7.33450 109.57410 25425 ft 450 kts 303°
2026-04-30 13:31 -7.30064 109.52012 26055 ft 455 kts 303°
2026-04-30 13:31 -7.24969 109.43857 26987 ft 461 kts 303°
2026-04-30 13:32 -7.21564 109.38408 27606 ft 465 kts 302°
2026-04-30 13:32 -7.18074 109.32841 28195 ft 469 kts 302°
2026-04-30 13:33 -7.14590 109.27297 28777 ft 473 kts 303°
2026-04-30 13:33 -7.11036 109.21643 29334 ft 476 kts 303°
2026-04-30 13:34 -7.09268 109.18821 29598 ft 478 kts 303°
2026-04-30 13:34 -7.03915 109.10266 30305 ft 484 kts 302°
2026-04-30 13:35 -7.02142 109.07434 30531 ft 485 kts 302°
2026-04-30 13:35 -6.98515 109.01656 31052 ft 486 kts 302°
2026-04-30 13:36 -6.94901 108.95907 31666 ft 484 kts 302°
2026-04-30 13:36 -6.93098 108.93038 31901 ft 484 kts 302°
2026-04-30 13:36 -6.89541 108.87371 31969 ft 475 kts 302°
2026-04-30 13:37 -6.84265 108.78977 31974 ft 472 kts 303°
2026-04-30 13:38 -6.78995 108.70600 31985 ft 473 kts 302°
2026-04-30 13:39 -6.71899 108.59399 31964 ft 472 kts 307°
2026-04-30 13:39 -6.67309 108.54746 31969 ft 470 kts 325°
2026-04-30 13:40 -6.64529 108.53023 31969 ft 468 kts 332°
2026-04-30 13:40 -6.58827 108.49847 31950 ft 469 kts 332°
2026-04-30 13:41 -6.53142 108.46651 31951 ft 469 kts 332°
2026-04-30 13:41 -6.50293 108.45045 31826 ft 470 kts 332°
2026-04-30 13:41 -6.47424 108.43434 30872 ft 475 kts 332°
2026-04-30 13:41 -6.44546 108.41822 30184 ft 473 kts 332°
2026-04-30 13:42 -6.41674 108.40215 29428 ft 471 kts 332°
2026-04-30 13:42 -6.38830 108.38625 28749 ft 466 kts 332°
2026-04-30 13:42 -6.33463 108.35089 27404 ft 460 kts 317°
2026-04-30 13:43 -6.31339 108.32689 26753 ft 458 kts 306°
2026-04-30 13:43 -6.29736 108.29948 26113 ft 456 kts 295°
2026-04-30 13:43 -6.28672 108.26944 25468 ft 454 kts 285°
2026-04-30 13:43 -6.27901 108.23875 24831 ft 452 kts 284°
2026-04-30 13:44 -6.27138 108.20822 24213 ft 449 kts 285°
2026-04-30 13:44 -6.26379 108.17784 23617 ft 446 kts 285°
2026-04-30 13:44 -6.25627 108.14774 22972 ft 443 kts 285°
2026-04-30 13:44 -6.24880 108.11781 22423 ft 437 kts 285°
2026-04-30 13:45 -6.23416 108.05929 21377 ft 427 kts 285°
2026-04-30 13:45 -6.22695 108.03056 20862 ft 423 kts 285°
2026-04-30 13:45 -6.21980 108.00204 20349 ft 418 kts 285°
2026-04-30 13:46 -6.21358 107.97366 19833 ft 415 kts 278°
2026-04-30 13:46 -6.21179 107.94475 19319 ft 412 kts 271°
2026-04-30 13:46 -6.21121 107.91599 18795 ft 411 kts 271°
2026-04-30 13:46 -6.21059 107.88734 18270 ft 409 kts 271°
2026-04-30 13:47 -6.20993 107.85851 17676 ft 407 kts 271°
2026-04-30 13:47 -6.20926 107.83048 17144 ft 404 kts 271°
2026-04-30 13:47 -6.20859 107.80227 16614 ft 402 kts 271°
2026-04-30 13:47 -6.20795 107.77433 16082 ft 400 kts 271°
2026-04-30 13:48 -6.20729 107.74651 15551 ft 398 kts 271°
2026-04-30 13:48 -6.20665 107.71850 15033 ft 395 kts 270°
2026-04-30 13:48 -6.20605 107.69126 14526 ft 393 kts 270°
2026-04-30 13:48 -6.20542 107.66343 13926 ft 393 kts 270°
2026-04-30 13:49 -6.20478 107.63604 13441 ft 389 kts 270°
2026-04-30 13:49 -6.20415 107.60918 13162 ft 375 kts 270°
2026-04-30 13:49 -6.20354 107.58385 12577 ft 361 kts 270°
2026-04-30 13:49 -6.20291 107.55855 11804 ft 355 kts 270°
2026-04-30 13:50 -6.20227 107.53402 11028 ft 350 kts 270°
2026-04-30 13:50 -6.20104 107.48611 9993 ft 325 kts 270°
2026-04-30 13:50 -6.20050 107.46418 9875 ft 303 kts 270°
2026-04-30 13:51 -6.19999 107.44382 9757 ft 284 kts 270°
2026-04-30 13:51 -6.19949 107.42430 9630 ft 274 kts 270°
2026-04-30 13:51 -6.19903 107.40548 9503 ft 266 kts 270°
2026-04-30 13:51 -6.19856 107.38647 9379 ft 275 kts 271°
2026-04-30 13:52 -6.19807 107.36720 9164 ft 277 kts 271°
2026-04-30 13:52 -6.19758 107.34789 8821 ft 276 kts 271°
2026-04-30 13:52 -6.19709 107.32866 8457 ft 275 kts 271°
2026-04-30 13:52 -6.19660 107.30951 8102 ft 274 kts 271°
2026-04-30 13:53 -6.19612 107.29041 7739 ft 273 kts 271°
2026-04-30 13:53 -6.19564 107.27129 7386 ft 272 kts 271°
2026-04-30 13:53 -6.19516 107.25234 7030 ft 271 kts 271°
2026-04-30 13:53 -6.19484 107.23979 6801 ft 270 kts 271°
2026-04-30 13:54 -6.19419 107.21467 6334 ft 268 kts 272°
2026-04-30 13:54 -6.19370 107.19628 6047 ft 260 kts 272°
2026-04-30 13:54 -6.19324 107.17835 5654 ft 252 kts 271°
2026-04-30 13:54 -6.19282 107.16107 5323 ft 243 kts 271°
2026-04-30 13:55 -6.19241 107.14441 5015 ft 235 kts 271°
2026-04-30 13:55 -6.19200 107.12824 4710 ft 228 kts 271°
2026-04-30 13:55 -6.19159 107.11251 4410 ft 222 kts 271°
2026-04-30 13:55 -6.19132 107.10231 4219 ft 218 kts 271°
2026-04-30 13:56 -6.19093 107.08728 3960 ft 210 kts 271°
2026-04-30 13:56 -6.19057 107.07291 3688 ft 204 kts 271°
2026-04-30 13:56 -6.19078 107.05887 3370 ft 196 kts 259°
2026-04-30 13:56 -6.19547 107.04620 3090 ft 188 kts 244°
2026-04-30 13:57 -6.20083 107.03455 2845 ft 182 kts 244°
2026-04-30 13:57 -6.20608 107.02311 2613 ft 178 kts 244°
2026-04-30 13:57 -6.21102 107.01235 2395 ft 171 kts 244°
2026-04-30 13:57 -6.21596 107.00158 2195 ft 161 kts 244°
2026-04-30 13:58 -6.22053 106.99161 1983 ft 151 kts 244°
2026-04-30 13:58 -6.22915 106.97282 1599 ft 146 kts 245°
2026-04-30 13:58 -6.23338 106.96360 1410 ft 145 kts 245°
2026-04-30 13:59 -6.23758 106.95444 1236 ft 143 kts 245°
2026-04-30 13:59 -6.24174 106.94538 1062 ft 142 kts 244°
2026-04-30 13:59 -6.24581 106.93649 887 ft 140 kts 244°
2026-04-30 13:59 -6.24990 106.92758 698 ft 139 kts 244°
2026-04-30 14:00 -6.25394 106.91876 519 ft 139 kts 244°
2026-04-30 14:00 -6.26295 106.89904 239 ft 183 kts 245°
2026-04-30 14:00 -6.26819 106.88755 916 ft 180 kts 244°
2026-04-30 14:01 -6.27349 106.87605 1398 ft 181 kts 245°
2026-04-30 14:01 -6.27882 106.86424 1825 ft 189 kts 245°
2026-04-30 14:01 -6.28466 106.85122 2014 ft 208 kts 245°
2026-04-30 14:01 -6.29084 106.83742 2358 ft 214 kts 244°
2026-04-30 14:02 -6.29985 106.82558 2711 ft 217 kts 214°
2026-04-30 14:02 -6.31423 106.82076 3100 ft 223 kts 178°
2026-04-30 14:02 -6.32894 106.82475 3695 ft 222 kts 148°
2026-04-30 14:02 -6.34124 106.83414 4297 ft 223 kts 140°
2026-04-30 14:03 -6.35327 106.84410 4880 ft 225 kts 140°
2026-04-30 14:03 -6.36554 106.85429 5458 ft 227 kts 140°
2026-04-30 14:03 -6.37655 106.86581 5893 ft 232 kts 122°
2026-04-30 14:03 -6.38258 106.88074 5988 ft 230 kts 98°
2026-04-30 14:04 -6.38308 106.89654 6003 ft 229 kts 88°
2026-04-30 14:04 -6.38273 106.91255 6006 ft 229 kts 88°
2026-04-30 14:04 -6.38248 106.92858 6001 ft 229 kts 88°
2026-04-30 14:04 -6.38226 106.94461 6005 ft 229 kts 88°
2026-04-30 14:05 -6.38179 106.96065 6001 ft 229 kts 82°
2026-04-30 14:05 -6.37766 106.97600 6013 ft 228 kts 64°
2026-04-30 14:05 -6.36990 106.98990 6011 ft 228 kts 59°
2026-04-30 14:05 -6.36188 107.00365 5910 ft 227 kts 59°
2026-04-30 14:06 -6.35383 107.01751 5604 ft 226 kts 59°
2026-04-30 14:06 -6.33795 107.04467 5018 ft 224 kts 59°
2026-04-30 14:07 -6.32205 107.07151 4435 ft 223 kts 59°
2026-04-30 14:07 -6.31411 107.08481 4147 ft 221 kts 59°
2026-04-30 14:07 -6.30617 107.09807 3856 ft 220 kts 59°
2026-04-30 14:08 -6.29033 107.12447 3300 ft 218 kts 59°
2026-04-30 14:08 -6.28073 107.13618 3019 ft 218 kts 37°
2026-04-30 14:08 -6.25194 107.14022 2541 ft 218 kts 337°
2026-04-30 14:09 -6.23988 107.13110 2492 ft 220 kts 308°
2026-04-30 14:09 -6.23232 107.11743 2501 ft 222 kts 298°
2026-04-30 14:09 -6.21788 107.08999 2500 ft 222 kts 295°
2026-04-30 14:10 -6.21151 107.07612 2498 ft 213 kts 294°
2026-04-30 14:10 -6.20548 107.06265 2498 ft 205 kts 294°
2026-04-30 14:10 -6.20139 107.04912 2521 ft 192 kts 277°
2026-04-30 14:10 -6.20163 107.03636 2503 ft 176 kts 259°
2026-04-30 14:11 -6.20512 107.02518 2491 ft 163 kts 244°
2026-04-30 14:11 -6.20984 107.01492 2392 ft 158 kts 244°
2026-04-30 14:11 -6.21437 107.00505 2254 ft 152 kts 244°
2026-04-30 14:11 -6.21873 106.99553 2059 ft 148 kts 244°
2026-04-30 14:12 -6.22157 106.98935 1933 ft 147 kts 244°
2026-04-30 14:12 -6.22582 106.98009 1747 ft 145 kts 244°
2026-04-30 14:12 -6.23003 106.97090 1567 ft 144 kts 245°
2026-04-30 14:12 -6.23420 106.96180 1379 ft 143 kts 245°
2026-04-30 14:13 -6.23837 106.95271 1200 ft 142 kts 244°
2026-04-30 14:13 -6.24250 106.94372 1026 ft 141 kts 244°
2026-04-30 14:13 -6.24658 106.93482 846 ft 140 kts 244°
2026-04-30 14:13 -6.25064 106.92597 668 ft 139 kts 244°
2026-04-30 14:14 -6.25472 106.91708 470 ft 138 kts 244°
2026-04-30 14:14 -6.25869 106.90832 292 ft 138 kts 245°
2026-04-30 14:14 -6.26271 106.89942 114 ft 135 kts 245°
2026-04-30 14:14 -6.26627 106.89181 96 ft 98 kts 244°
2026-04-30 14:15 -6.26836 106.88733 95 ft 39 kts 245°
2026-04-30 14:15 -6.26902 106.88576 94 ft 10 kts 266°
2026-04-30 14:15 -6.26845 106.88518 94 ft 10 kts 335°
2026-04-30 14:15 -6.26786 106.88491 94 ft 7 kts 335°
2026-04-30 14:16 -6.26754 106.88485 94 ft 4 kts
2026-04-30 14:16 -6.26722 106.88503 95 ft 11 kts 50°
2026-04-30 14:16 -6.26690 106.88575 95 ft 7 kts 66°
2026-04-30 14:16 -6.26669 106.88616 96 ft 6 kts 46°
2026-04-30 14:17 -6.26637 106.88615 96 ft 4 kts 334°
2026-04-30 14:17 -6.26614 106.88604 96 ft 3 kts 333°
2026-04-30 14:17 -6.26613 106.88604 96 ft 0 kts 333°